K3CHZ Weather Reports


Display with metric or nautical units.
time (UTC)temp
F
wind
direction
speed
MPH
gust
MPH
rain 1hr
in
rain 24hr
in
rain mn
in
humidity
%
barometer
mb
20260505034720 63 180 0.0 0.0 0.00 0.00 0.00 58 1010.7
20260505034219 63 180 0.0 0.0 0.00 0.00 0.00 58 1010.8
20260505033719 63 180 0.0 0.0 0.00 0.00 0.00 57 1010.8
20260505033218 63 180 0.0 0.0 0.00 0.00 0.00 57 1010.8
20260505032718 63 180 0.0 0.0 0.00 0.00 0.00 57 1010.9
20260505032219 63 180 0.0 0.0 0.00 0.00 0.00 57 1010.9
20260505031718 63 180 0.0 0.0 0.00 0.00 0.00 57 1010.8
20260505031219 63 180 0.0 0.0 0.00 0.00 0.00 56 1010.8
20260505030721 64 180 0.0 1.0 0.00 0.00 0.00 56 1010.8
20260505030219 64 180 0.0 2.0 0.00 0.00 0.00 55 1010.7
20260505025719 64 180 0.0 2.0 0.00 0.00 0.00 55 1010.7
20260505025218 64 180 1.0 2.0 0.00 0.00 0.00 55 1010.7
20260505024719 63 180 0.0 0.0 0.00 0.00 0.00 55 1010.8
20260505024218 63 180 0.0 0.0 0.00 0.00 0.00 56 1010.8
20260505023719 64 180 0.0 0.0 0.00 0.00 0.00 57 1010.9
20260505023220 64 180 0.0 0.0 0.00 0.00 0.00 56 1010.8
20260505022719 64 180 0.0 0.0 0.00 0.00 0.00 55 1010.8
20260505022218 64 180 0.0 0.0 0.00 0.00 0.00 53 1010.7
20260505021718 64 180 0.0 0.0 0.00 0.00 0.00 53 1010.6
20260505021218 65 180 0.0 0.0 0.00 0.00 0.00 56 1010.6
20260505020718 65 180 0.0 0.0 0.00 0.00 0.00 53 1010.6
20260505020218 65 180 0.0 0.0 0.00 0.00 0.00 51 1010.6
20260505015720 66 180 0.0 0.0 0.00 0.00 0.00 52 1010.6
20260505015219 66 180 0.0 0.0 0.00 0.00 0.00 50 1010.5
20260505014718 66 180 0.0 0.0 0.00 0.00 0.00 50 1010.5
20260505014220 66 180 0.0 0.0 0.00 0.00 0.00 50 1010.3
20260505013719 66 180 0.0 0.0 0.00 0.00 0.00 50 1010.3
20260505013218 66 180 0.0 0.0 0.00 0.00 0.00 50 1010.3
20260505012719 67 180 0.0 0.0 0.00 0.00 0.00 49 1010.3
20260505012222 67 180 0.0 1.0 0.00 0.00 0.00 48 1010.1
20260505011721 67 180 0.0 1.0 0.00 0.00 0.00 48 1010.1
20260505011225 67 180 0.0 1.0 0.00 0.00 0.00 48 1010.1
20260505010721 67 180 0.0 0.0 0.00 0.00 0.00 47 1010.0
20260505010221 67 180 0.0 0.0 0.00 0.00 0.00 47 1010.0
20260505005722 68 180 0.0 0.0 0.00 0.00 0.00 47 1009.9
20260505005221 68 180 0.0 0.0 0.00 0.00 0.00 47 1009.9
20260505004722 68 180 0.0 0.0 0.00 0.00 0.00 46 1010.0
20260505004221 68 180 0.0 0.0 0.00 0.00 0.00 46 1009.9
20260505003722 68 180 0.0 0.0 0.00 0.00 0.00 46 1010.0
20260505003222 69 180 0.0 0.0 0.00 0.00 0.00 45 1009.9
20260505002715 69 180 0.0 0.0 0.00 0.00 0.00 45 1009.9
20260505002216 69 180 0.0 3.0 0.00 0.00 0.00 45 1009.8
20260505001717 69 180 0.0 3.0 0.00 0.00 0.00 44 1009.9
20260505001216 69 180 1.0 3.0 0.00 0.00 0.00 45 1009.8
20260505000716 69 180 1.0 2.0 0.00 0.00 0.00 44 1009.9
20260505000218 69 180 0.0 1.0 0.00 0.00 0.00 44 1009.8
20260504235716 70 180 0.0 1.0 0.00 0.00 0.00 44 1009.8
20260504235216 70 180 0.0 2.0 0.00 0.00 0.00 43 1009.7
20260504234715 70 180 0.0 2.0 0.00 0.00 0.00 43 1009.6
20260504234216 70 180 0.0 2.0 0.00 0.00 0.00 43 1009.6
20260504233716 70 180 0.0 1.0 0.00 0.00 0.00 43 1009.6
20260504233215 70 180 0.0 2.0 0.00 0.00 0.00 42 1009.7
20260504232715 71 180 0.0 3.0 0.00 0.00 0.00 42 1009.6
20260504232217 71 180 1.0 3.0 0.00 0.00 0.00 41 1009.6
20260504231715 71 182 1.0 3.0 0.00 0.00 0.00 41 1009.5
20260504231216 71 182 1.0 3.0 0.00 0.00 0.00 41 1009.6
20260504230715 71 182 2.0 5.0 0.00 0.00 0.00 40 1009.6
20260504230216 72 182 2.0 6.0 0.00 0.00 0.00 40 1009.5
20260504225716 72 209 2.0 6.0 0.00 0.00 0.00 39 1009.6
20260504225217 72 177 1.0 5.0 0.00 0.00 0.00 41 1009.6
20260504224716 72 184 2.0 5.0 0.00 0.00 0.00 38 1009.6
20260504224216 72 220 2.0 6.0 0.00 0.00 0.00 38 1009.7
20260504223716 73 184 3.0 6.0 0.00 0.00 0.00 38 1009.4
20260504223216 73 206 3.0 6.0 0.00 0.00 0.00 38 1009.4
20260504222716 73 179 2.0 5.0 0.00 0.00 0.00 38 1009.4
20260504222219 73 179 2.0 3.0 0.00 0.00 0.00 39 1009.4
20260504221719 73 179 2.0 3.0 0.00 0.00 0.00 38 1009.4
20260504221220 73 179 1.0 3.0 0.00 0.00 0.00 38 1009.5
20260504220718 72 179 1.0 3.0 0.00 0.00 0.00 39 1009.5
20260504220220 72 179 0.0 2.0 0.00 0.00 0.00 38 1009.4
20260504215719 72 179 0.0 3.0 0.00 0.00 0.00 38 1009.4
20260504215219 73 179 1.0 3.0 0.00 0.00 0.00 36 1009.4
20260504214718 73 186 1.0 5.0 0.00 0.00 0.00 37 1009.6
20260504214219 73 200 0.0 5.0 0.00 0.00 0.00 37 1009.6
20260504213719 73 198 2.0 6.0 0.00 0.00 0.00 37 1009.6
20260504213221 73 202 2.0 6.0 0.00 0.00 0.00 38 1009.5
20260504212719 73 87 0.0 3.0 0.00 0.00 0.00 37 1009.6
20260504212223 73 170 0.0 3.0 0.00 0.00 0.00 37 1009.7
20260504211722 73 190 0.0 3.0 0.00 0.00 0.00 38 1009.7
20260504211223 73 190 0.0 5.0 0.00 0.00 0.00 38 1009.7
20260504210722 73 190 2.0 5.0 0.00 0.00 0.00 36 1009.7
20260504210222 73 256 2.0 5.0 0.00 0.00 0.00 35 1009.6
20260504205723 73 206 2.0 5.0 0.00 0.00 0.00 35 1009.6
20260504205223 73 156 0.0 2.0 0.00 0.00 0.00 35 1009.7
20260504204723 73 252 0.0 5.0 0.00 0.00 0.00 35 1009.6
20260504204221 73 243 0.0 5.0 0.00 0.00 0.00 38 1009.6
20260504203722 73 190 2.0 5.0 0.00 0.00 0.00 37 1009.6
20260504203222 73 66 2.0 5.0 0.00 0.00 0.00 35 1009.7
20260504202722 73 198 0.0 5.0 0.00 0.00 0.00 37 1009.8
20260504202503 73 198 0.0 5.0 0.00 0.00 0.00 35 1009.9
20260504202004 73 173 1.0 5.0 0.00 0.00 0.00 40 1010.2
20260504201503 73 143 1.0 3.0 0.00 0.00 0.00 37 1010.2
20260504201004 73 178 1.0 6.0 0.00 0.00 0.00 37 1010.2
20260504200216 73 206 1.0 5.0 0.00 0.00 0.00 36 1010.3
20260504195717 73 195 0.0 5.0 0.00 0.00 0.00 37 1010.3
20260504195216 73 312 1.0 5.0 0.00 0.00 0.00 37 1010.4
20260504194716 73 198 0.0 3.0 0.00 0.00 0.00 38 1010.6
20260504194215 73 214 2.0 3.0 0.00 0.00 0.00 38 1010.6
20260504193717 73 198 2.0 3.0 0.00 0.00 0.00 38 1010.7
20260504193216 73 178 0.0 5.0 0.00 0.00 0.00 37 1010.9
20260504192716 73 178 1.0 5.0 0.00 0.00 0.00 41 1011.1
20260504192215 73 220 1.0 5.0 0.00 0.00 0.00 35 1011.1
20260504191715 73 212 2.0 7.0 0.00 0.00 0.00 38 1011.2
20260504191216 72 291 1.0 7.0 0.00 0.00 0.00 40 1011.5
20260504190717 72 216 1.0 7.0 0.00 0.00 0.00 36 1011.5
20260504190217 72 188 2.0 7.0 0.00 0.00 0.00 37 1011.4
20260504185715 72 21 1.0 5.0 0.00 0.00 0.00 37 1011.5
20260504185215 72 218 2.0 5.0 0.00 0.00 0.00 40 1011.5
20260504184718 72 351 1.0 5.0 0.00 0.00 0.00 36 1011.6
20260504184216 72 180 1.0 3.0 0.00 0.00 0.00 38 1011.7
20260504183717 72 299 2.0 6.0 0.00 0.00 0.00 39 1011.8
20260504183217 72 231 2.0 6.0 0.00 0.00 0.00 38 1011.8
20260504182717 72 177 2.0 6.0 0.00 0.00 0.00 38 1011.9
20260504182222 72 164 1.0 6.0 0.00 0.00 0.00 37 1012.0
20260504181723 71 261 1.0 6.0 0.00 0.00 0.00 41 1012.0
20260504181222 71 266 2.0 5.0 0.00 0.00 0.00 38 1012.1
20260504180724 71 175 1.0 5.0 0.00 0.00 0.00 37 1012.3
20260504180222 71 182 1.0 3.0 0.00 0.00 0.00 36 1012.3
20260504175722 71 281 0.0 2.0 0.00 0.00 0.00 39 1012.2
20260504175222 71 161 0.0 2.0 0.00 0.00 0.00 38 1012.3
20260504174723 70 161 0.0 6.0 0.00 0.00 0.00 39 1012.3
20260504174221 70 144 2.0 6.0 0.00 0.00 0.00 39 1012.4
20260504173723 70 196 1.0 3.0 0.00 0.00 0.00 38 1012.5
20260504173221 70 242 1.0 3.0 0.00 0.00 0.00 38 1012.6
20260504172719 69 268 1.0 5.0 0.00 0.00 0.00 37 1012.6
20260504172220 69 188 2.0 5.0 0.00 0.00 0.00 36 1012.7
20260504171719 69 193 0.0 5.0 0.00 0.00 0.00 37 1012.7
20260504171220 69 172 2.0 5.0 0.00 0.00 0.00 37 1012.8
20260504170719 69 167 1.0 3.0 0.00 0.00 0.00 39 1012.9
20260504170218 69 167 1.0 3.0 0.00 0.00 0.00 37 1012.9
20260504160216 68 293 2.0 5.0 0.00 0.00 0.00 40 1013.5
20260504150722 65 277 1.0 5.0 0.00 0.00 0.00 40 1014.1
20260504150222 65 227 0.0 3.0 0.00 0.00 0.00 40 1014.2
20260504141216 62 188 0.0 2.0 0.00 0.00 0.00 50 1014.2
20260504140716 61 194 0.0 2.0 0.00 0.00 0.00 48 1014.2
20260504140216 61 194 0.0 3.0 0.00 0.00 0.00 52 1014.2
20260504130717 55 179 1.0 3.0 0.00 0.00 0.00 58 1014.7
20260504130216 54 194 1.0 3.0 0.00 0.00 0.00 57 1014.7
20260504120221 49 5 0.0 0.0 0.00 0.00 0.00 72 1015.0
20260504110719 46 5 0.0 0.0 0.00 0.00 0.00 78 1015.1
20260504110219 46 5 0.0 0.0 0.00 0.00 0.00 76 1015.1
20260504100216 47 285 0.0 0.0 0.00 0.00 0.00 77 1015.1
20260504081717 46 285 0.0 0.0 0.00 0.00 0.00 81 1015.5
20260504081218 46 285 0.0 0.0 0.00 0.00 0.00 81 1015.6
20260504080716 45 285 0.0 0.0 0.00 0.00 0.00 78 1015.5
20260504080216 46 285 0.0 0.0 0.00 0.00 0.00 78 1015.6
20260504070216 44 285 0.0 0.0 0.00 0.00 0.00 76 1015.7
20260504060219 41 285 0.0 0.0 0.00 0.00 0.00 84 1015.8
20260504050716 41 285 0.0 0.0 0.00 0.00 0.00 84 1016.0
20260504050216 41 285 0.0 0.0 0.00 0.00 0.00 82 1015.9
20260504045716 41 285 0.0 0.0 0.00 0.00 0.00 82 1015.9
20260504045216 41 285 0.0 0.0 0.00 0.00 0.00 83 1015.8
20260504044717 41 285 0.0 0.0 0.00 0.00 0.00 82 1015.8
20260504044217 42 285 0.0 0.0 0.00 0.00 0.00 82 1015.8
20260504043716 42 285 0.0 0.0 0.00 0.00 0.00 82 1015.9
20260504043222 42 285 0.0 0.0 0.00 0.00 0.00 82 1015.9
20260504042717 42 285 0.0 0.0 0.00 0.00 0.00 82 1015.9
20260504042216 42 285 0.0 0.0 0.00 0.00 0.00 82 1015.8
20260504041716 42 285 0.0 0.0 0.00 0.00 0.00 81 1015.8
20260504041216 42 285 0.0 0.0 0.00 0.00 0.00 81 1015.8
20260504040718 42 285 0.0 0.0 0.00 0.00 0.00 81 1015.7
20260504040216 42 285 0.0 0.0 0.00 0.00 0.00 80 1015.7
20260504035716 42 285 0.0 0.0 0.00 0.00 0.00 79 1015.8
20260504035216 42 285 0.0 0.0 0.00 0.00 0.00 78 1015.6